Le nostre stazioni meteo in Italia

Pubblicità
Il mio iltempo24.it
Cozzo Spadaro, Italia (16480): Temperatura & dewpoint: 15.02.2020 05:00:00 - 21.02.2020 05:00:00 (CET)Cozzo Spadaro, Italia (16480): velocità del vento: 15.02.2020 05:00:00 - 21.02.2020 05:00:00 (CET)Cozzo Spadaro, Italia (16480): direzione del vento: 15.02.2020 05:00:00 - 21.02.2020 05:00:00 (CET)Cozzo Spadaro, Italia (16480): reduced air pressure: 15.02.2020 05:00:00 - 21.02.2020 05:00:00 (CET)Cozzo Spadaro, Italia (16480): visibility: 15.02.2020 05:00:00 - 21.02.2020 05:00:00 (CET)Cozzo Spadaro, Italia (16480): ore di luce: 15.02.2020 05:00:00 - 21.02.2020 05:00:00 (CET)
Data & Tempo tt [°C] td [°C] ff [km/h] ff [kn] dd ppp [hPa] vv [km] sd [min]
21.02.2020 05:00:00 - - - - - - - -
21.02.2020 04:00:00 - - - - - - - -
21.02.2020 03:00:00 - - - - - - - -
21.02.2020 02:00:00 - - - - - - - -
21.02.2020 01:00:00 - - - - - - - -
21.02.2020 00:00:00 - - - - - - - -
20.02.2020 23:00:00 - - - - - - - -
20.02.2020 22:00:00 - - - - - - - -
20.02.2020 21:00:00 - - - - - - - -
20.02.2020 20:00:00 - - - - - - - -
20.02.2020 19:00:00 12,8 9,6 9 5 E 1020,1 25 -
20.02.2020 18:00:00 13,4 8,9 11 6 E 1019,2 25 0
20.02.2020 17:00:00 14,4 9,2 13 7 E 1018,3 25 54
20.02.2020 16:00:00 16,2 9,9 13 7 E 1018,1 25 60
20.02.2020 15:00:00 17,4 6,6 9 5 E 1018,1 25 42
20.02.2020 14:00:00 18,6 8,8 16 9 ONO 1018,2 25 60
20.02.2020 13:00:00 18,2 6,1 13 7 O 1019,1 25 36
20.02.2020 12:00:00 16,0 8,2 13 7 N 1019,4 25 30
20.02.2020 11:00:00 16,2 6,9 13 7 O 1019,4 25 60
20.02.2020 10:00:00 15,0 7,1 15 8 NO 1019,2 25 60
20.02.2020 09:00:00 13,4 7,2 13 7 ONO 1019,2 25 60
20.02.2020 08:00:00 10,8 6,0 13 7 ONO 1018,6 25 36
20.02.2020 07:00:00 8,4 4,6 13 7 ONO 1018,6 25 0
20.02.2020 06:00:00 - - - - - - - -
20.02.2020 05:00:00 - - - - - - - -
20.02.2020 04:00:00 - - - - - - - -
20.02.2020 03:00:00 - - - - - - - -
20.02.2020 02:00:00 - - - - - - - -
20.02.2020 01:00:00 - - - - - - - -
20.02.2020 00:00:00 - - - - - - - -
19.02.2020 23:00:00 - - - - - - - -
19.02.2020 22:00:00 - - - - - - - -
19.02.2020 21:00:00 - - - - - - - -
19.02.2020 20:00:00 - - - - - - - -
19.02.2020 19:00:00 12,8 10,5 11 6 NO 1018,3 25 -
19.02.2020 18:00:00 13,8 10,6 9 5 O 1018,5 25 0
19.02.2020 17:00:00 14,2 10,8 9 5 O 1018,9 25 30
19.02.2020 16:00:00 15,0 10,0 13 7 O 1019,2 25 60
19.02.2020 15:00:00 15,0 9,2 15 8 O 1019,5 25 60
19.02.2020 14:00:00 15,6 9,7 15 8 O 1020,1 25 60
19.02.2020 13:00:00 16,2 9,4 13 7 O 1020,2 25 60
19.02.2020 12:00:00 16,6 9,8 8 4 O 1021,0 25 60
19.02.2020 11:00:00 17,0 11,3 5 3 NO 1021,1 25 60
19.02.2020 10:00:00 15,0 10,2 9 5 NNE 1021,1 25 60
19.02.2020 09:00:00 13,0 9,8 9 5 N 1021,2 25 60
19.02.2020 08:00:00 11,2 9,6 5 3 N 1021,2 25 24
19.02.2020 07:00:00 9,0 7,8 5 3 N 1021,3 25 0
19.02.2020 06:00:00 - - - - - - - -
19.02.2020 05:00:00 - - - - - - - -
19.02.2020 04:00:00 - - - - - - - -
19.02.2020 03:00:00 - - - - - - - -
19.02.2020 02:00:00 - - - - - - - -
19.02.2020 01:00:00 - - - - - - - -
19.02.2020 00:00:00 - - - - - - - -
18.02.2020 23:00:00 - - - - - - - -
18.02.2020 22:00:00 - - - - - - - -
18.02.2020 21:00:00 - - - - - - - -
18.02.2020 20:00:00 - - - - - - - -
18.02.2020 19:00:00 12,0 8,7 2 1 ENE 1021,2 25 -
18.02.2020 18:00:00 12,6 8,9 2 1 ENE 1021,1 25 0
18.02.2020 17:00:00 13,2 9,1 5 3 E 1020,9 25 60
18.02.2020 16:00:00 15,0 10,4 13 7 E 1021,0 25 60
18.02.2020 15:00:00 16,8 9,0 11 6 NO 1021,4 25 60
18.02.2020 14:00:00 16,8 8,0 15 8 ONO 1021,8 25 60
18.02.2020 13:00:00 17,0 8,4 15 8 ONO 1022,1 25 60
18.02.2020 12:00:00 16,0 10,1 9 5 ESE 1022,8 25 60
18.02.2020 11:00:00 15,0 10,8 8 4 SSE 1023,2 25 60
18.02.2020 10:00:00 14,6 11,2 2 1 ESE 1023,2 20 60
18.02.2020 09:00:00 13,0 8,3 5 3 ENE 1023,0 25 60
18.02.2020 08:00:00 10,0 7,2 9 5 NNO 1022,3 25 18
18.02.2020 07:00:00 8,8 6,1 11 6 NO 1022,3 25 0
18.02.2020 06:00:00 - - - - - - - -
18.02.2020 05:00:00 - - - - - - - -
18.02.2020 04:00:00 - - - - - - - -
18.02.2020 03:00:00 - - - - - - - -
18.02.2020 02:00:00 - - - - - - - -
18.02.2020 01:00:00 - - - - - - - -
18.02.2020 00:00:00 - - - - - - - -
17.02.2020 23:00:00 - - - - - - - -
17.02.2020 22:00:00 - - - - - - - -
17.02.2020 21:00:00 - - - - - - - -
17.02.2020 20:00:00 - - - - - - - -
17.02.2020 19:00:00 11,4 8,6 8 4 O 1025,5 20 -
17.02.2020 18:00:00 12,4 8,9 5 3 OSO 1025,3 20 0
17.02.2020 17:00:00 14,0 9,4 8 4 OSO 1025,4 25 60
17.02.2020 16:00:00 14,8 9,8 5 3 SSO 1026,1 25 60
17.02.2020 15:00:00 15,6 10,4 8 4 SE 1026,2 25 60
17.02.2020 14:00:00 15,8 10,8 5 3 ESE 1026,7 25 60
17.02.2020 13:00:00 15,8 11,2 9 5 E 1027,3 25 60
17.02.2020 12:00:00 15,6 11,0 8 4 E 1028,2 25 60
17.02.2020 11:00:00 15,0 10,4 8 4 ENE 1028,2 25 60
17.02.2020 10:00:00 15,0 10,2 8 4 NE 1027,7 25 60
17.02.2020 09:00:00 13,6 9,2 9 5 NNE 1027,7 25 60
17.02.2020 08:00:00 11,0 5,7 8 4 NNE 1027,4 25 42
17.02.2020 07:00:00 8,8 5,4 8 4 N 1027,3 25 0
17.02.2020 06:00:00 - - - - - - - -
17.02.2020 05:00:00 - - - - - - - -
17.02.2020 04:00:00 - - - - - - - -
17.02.2020 03:00:00 - - - - - - - -
17.02.2020 02:00:00 - - - - - - - -
17.02.2020 01:00:00 - - - - - - - -
17.02.2020 00:00:00 - - - - - - - -
16.02.2020 23:00:00 - - - - - - - -
16.02.2020 22:00:00 - - - - - - - -
16.02.2020 21:00:00 - - - - - - - -
16.02.2020 20:00:00 - - - - - - - -
16.02.2020 19:00:00 13,0 8,9 0 0 N 1028,2 20 -
16.02.2020 18:00:00 13,8 8,8 4 2 ESE 1027,4 25 0
16.02.2020 17:00:00 14,6 9,0 5 3 SE 1027,2 25 12
16.02.2020 16:00:00 15,0 8,9 8 4 SE 1027,2 25 12
16.02.2020 15:00:00 16,0 9,2 11 6 SE 1027,2 25 60
16.02.2020 14:00:00 16,2 10,7 11 6 E 1027,3 25 60
16.02.2020 13:00:00 16,0 10,5 11 6 E 1028,0 25 60
16.02.2020 12:00:00 16,0 10,7 11 6 E 1028,2 25 60
16.02.2020 11:00:00 15,8 11,2 13 7 ENE 1028,3 25 60
16.02.2020 10:00:00 15,0 11,2 13 7 NE 1028,2 25 36
16.02.2020 09:00:00 13,0 10,5 5 3 N 1027,2 20 0
16.02.2020 08:00:00 12,6 9,4 5 3 E 1026,6 20 0
16.02.2020 07:00:00 12,4 9,4 9 5 ESE 1026,3 20 0
16.02.2020 06:00:00 - - - - - - - -
16.02.2020 05:00:00 - - - - - - - -
16.02.2020 04:00:00 - - - - - - - -
16.02.2020 03:00:00 - - - - - - - -
16.02.2020 02:00:00 - - - - - - - -
16.02.2020 01:00:00 - - - - - - - -
16.02.2020 00:00:00 - - - - - - - -
15.02.2020 23:00:00 - - - - - - - -
15.02.2020 22:00:00 - - - - - - - -
15.02.2020 21:00:00 - - - - - - - -
15.02.2020 20:00:00 - - - - - - - -
15.02.2020 19:00:00 13,2 8,9 0 0 N 1024,2 25 -
15.02.2020 18:00:00 14,0 9,0 4 2 NO 1023,3 25 0
15.02.2020 17:00:00 15,0 8,7 4 2 SSE 1022,7 25 60
15.02.2020 16:00:00 17,0 8,4 11 6 E 1022,6 25 60
15.02.2020 15:00:00 17,4 8,5 11 6 E 1022,6 25 60
15.02.2020 14:00:00 17,4 8,3 13 7 E 1022,6 25 60
15.02.2020 13:00:00 17,0 7,9 8 4 E 1022,9 25 60
15.02.2020 12:00:00 17,0 6,8 8 4 ENE 1023,1 25 60
15.02.2020 11:00:00 17,0 5,3 8 4 NE 1023,1 25 60
15.02.2020 10:00:00 16,4 7,4 5 3 NNE 1022,6 25 60
15.02.2020 09:00:00 14,0 7,5 9 5 N 1021,3 25 60
15.02.2020 08:00:00 11,8 6,5 13 7 N 1021,2 25 42
15.02.2020 07:00:00 11,2 5,7 11 6 NO 1020,5 20 0
15.02.2020 06:00:00 - - - - - - - -
15.02.2020 05:00:00 - - - - - - - -

tt = Temperatura
td = dewpoint
ff = velocità del vento
dd = direzione del vento
ppp = reduced air pressure
vv = visibility
sd = ore di luce

Stazioni seguenti

WeatherPro
AMSI
MeteoEarth